Location: North Evanston
(42.0634°N, 87.6976°W)
Time: 13:52:35
(UTC+00:00)

Injun/Solrad 3 - Pass Details

Date: 10 May 2026
Orbit: 867 x 989 km, 66.8° (Epoch: 7 June)

Event Time Altitude Azimuth Distance (km) Brightness Sun altitude
Rises 00:55:47 0° 272° (W) 3,549 12.5 -0.4°
Reaches altitude 10° 00:59:43 10° 297° (WNW) 2,638 12.6 -1.0°
Maximum altitude 01:02:48 14° 328° (NNW) 2,380 11.1 -1.5°
Drops below altitude 10° 01:05:57 10° 359° (N) 2,686 10.7 -2.1°
Sets 01:10:02 0° 24° (NNE) 3,661 11.1 -2.7°
